FW4469 Weather Reports


Display with metric or nautical units.
time (UTC)temp
F
wind
direction
speed
MPH
gust
MPH
rain 1hr
in
rain 24hr
in
rain mn
in
humidity
%
barometer
mb
20200403233004 40 270 0.0 2.0 0.00 0.00 0.00 92 1018.2
20200403232003 39 279 0.0 1.0 0.00 0.00 0.00 92 1018.3
20200403231003 40 266 0.0 2.0 0.00 0.00 0.00 91 1018.3
20200403230004 40 266 0.0 1.0 0.00 0.00 0.00 91 1018.3
20200403225003 40 262 0.0 3.0 0.00 0.00 0.00 91 1018.2
20200403224004 40 262 0.0 3.0 0.00 0.00 0.00 90 1018.2
20200403223004 39 262 1.0 3.0 0.00 0.00 0.00 89 1018.2
20200403222004 40 262 1.0 3.0 0.00 0.00 0.00 88 1018.3
20200403221003 40 263 0.0 2.0 0.00 0.00 0.00 87 1018.3
20200403220003 40 263 0.0 2.0 0.00 0.00 0.00 85 1018.2
20200403215003 41 271 1.0 3.0 0.00 0.00 0.00 84 1018.1
20200403214003 41 265 1.0 4.0 0.00 0.00 0.00 83 1018.0
20200403213004 41 264 1.0 3.0 0.00 0.00 0.00 83 1018.1
20200403212004 41 268 0.0 3.0 0.00 0.00 0.00 83 1018.1
20200403211004 40 273 0.0 1.0 0.00 0.00 0.00 84 1018.2
20200403210004 40 0 0.0 0.0 0.00 0.00 0.00 83 1018.2
20200403205003 40 0 0.0 0.0 0.00 0.00 0.00 82 1018.1
20200403204003 41 0 0.0 0.0 0.00 0.00 0.00 81 1018.1
20200403203004 41 0 0.0 0.0 0.00 0.00 0.00 80 1017.9
20200403202004 41 0 0.0 0.0 0.00 0.00 0.00 80 1017.8
20200403201004 42 0 0.0 0.0 0.00 0.00 0.00 79 1017.9
20200403200004 42 0 0.0 0.0 0.00 0.00 0.00 79 1018.0
20200403195003 42 0 0.0 0.0 0.00 0.00 0.00 78 1017.8
20200403194003 43 0 0.0 0.0 0.00 0.00 0.00 78 1017.9
20200403193003 43 0 0.0 0.0 0.00 0.00 0.00 76 1017.9
20200403192003 44 0 0.0 0.0 0.00 0.00 0.00 75 1017.8
20200403191004 44 0 0.0 0.0 0.00 0.00 0.00 74 1017.9
20200403190004 45 0 0.0 0.0 0.00 0.00 0.00 73 1017.8
20200403185004 46 265 0.0 3.0 0.00 0.00 0.00 71 1017.9
20200403184004 47 270 1.0 3.0 0.00 0.00 0.00 70 1017.9
20200403183004 48 272 1.0 3.0 0.00 0.00 0.00 68 1017.8
20200403182004 49 283 1.0 3.0 0.00 0.00 0.00 69 1017.7
20200403181004 49 278 1.0 4.0 0.00 0.00 0.00 69 1017.7
20200403180003 49 276 2.0 5.0 0.00 0.00 0.00 69 1017.7
20200403175003 48 272 2.0 6.0 0.00 0.00 0.00 70 1017.7
20200403174003 48 270 3.0 7.0 0.00 0.00 0.00 69 1017.6
20200403173003 48 275 3.0 10.0 0.00 0.00 0.00 69 1017.6
20200403172003 48 284 2.0 7.0 0.00 0.00 0.00 70 1017.6
20200403171004 48 274 2.0 7.0 0.00 0.00 0.00 68 1017.5
20200403170005 48 267 2.0 5.0 0.00 0.00 0.00 69 1017.5
20200403165003 49 280 2.0 6.0 0.00 0.00 0.00 69 1017.4
20200403164003 50 287 3.0 10.0 0.00 0.00 0.00 67 1017.4
20200403163003 50 274 2.0 8.0 0.00 0.00 0.00 67 1017.4
20200403162004 49 269 4.0 10.0 0.00 0.00 0.00 69 1017.5
20200403161004 49 282 3.0 10.0 0.00 0.00 0.00 67 1017.5
20200403160004 48 287 4.0 11.0 0.00 0.00 0.00 68 1017.5
20200403155003 49 302 4.0 12.0 0.00 0.00 0.00 67 1017.5
20200403154003 49 282 5.0 10.0 0.00 0.00 0.00 66 1017.4
20200403153003 49 308 5.0 11.0 0.00 0.00 0.00 68 1017.3
20200403152004 49 288 6.0 13.0 0.00 0.00 0.00 67 1017.2
20200403151004 49 279 4.0 8.0 0.00 0.00 0.00 66 1017.2
20200403150003 49 288 4.0 11.0 0.00 0.00 0.00 66 1017.1
20200403145003 50 292 4.0 10.0 0.00 0.00 0.00 67 1017.2
20200403144003 50 282 4.0 10.0 0.00 0.00 0.00 66 1017.2
20200403143004 49 287 4.0 8.0 0.00 0.00 0.00 66 1017.4
20200403142003 50 275 3.0 8.0 0.00 0.00 0.00 65 1017.3
20200403141004 51 271 3.0 10.0 0.00 0.00 0.00 63 1017.2
20200403140004 51 276 5.0 10.0 0.00 0.00 0.00 66 1017.3
20200403135003 51 275 4.0 10.0 0.00 0.00 0.00 67 1017.3
20200403134003 50 287 4.0 10.0 0.00 0.00 0.00 67 1017.3
20200403133003 50 280 4.0 10.0 0.00 0.00 0.00 67 1017.4
20200403132004 50 289 5.0 12.0 0.00 0.00 0.00 67 1017.5
20200403131003 49 295 4.0 10.0 0.00 0.00 0.00 67 1017.3
20200403130004 48 281 3.0 10.0 0.00 0.00 0.00 69 1017.3
20200403125004 48 286 4.0 10.0 0.00 0.00 0.00 67 1017.2
20200403124004 49 293 5.0 11.0 0.00 0.00 0.00 67 1017.1
20200403123003 49 277 3.0 10.0 0.00 0.00 0.00 68 1017.2
20200403122003 48 283 4.0 10.0 0.00 0.00 0.00 67 1017.2
20200403121004 48 277 4.0 9.0 0.00 0.00 0.00 66 1017.3
20200403120003 48 292 4.0 9.0 0.00 0.00 0.00 69 1017.3
20200403115003 48 295 4.0 7.0 0.00 0.00 0.00 67 1017.3
20200403114004 47 281 4.0 8.0 0.00 0.00 0.00 67 1017.4
20200403113004 47 288 4.0 11.0 0.00 0.00 0.00 69 1017.4
20200403112004 46 303 4.0 10.0 0.00 0.00 0.00 68 1017.4
20200403111004 47 278 4.0 10.0 0.00 0.00 0.00 68 1017.5
20200403110004 46 282 4.0 10.0 0.00 0.00 0.00 70 1017.5
20200403105004 46 282 4.0 11.0 0.00 0.00 0.00 70 1017.3
20200403104004 46 283 4.0 11.0 0.00 0.00 0.00 70 1017.3
20200403103004 46 282 4.0 10.0 0.00 0.00 0.00 70 1017.4
20200403102003 45 273 4.0 11.0 0.00 0.00 0.00 71 1017.4
20200403101003 45 286 3.0 9.0 0.00 0.00 0.00 72 1017.4
20200403100004 45 277 4.0 9.0 0.00 0.00 0.00 72 1017.4
20200403095004 44 279 3.0 8.0 0.00 0.00 0.00 74 1017.4
20200403094004 44 274 4.0 9.0 0.00 0.00 0.00 75 1017.3
20200403093003 44 289 4.0 9.0 0.00 0.00 0.00 79 1017.3
20200403092003 43 278 3.0 8.0 0.00 0.00 0.00 78 1017.2
20200403091004 43 270 2.0 5.0 0.00 0.00 0.00 80 1017.3
20200403090003 43 277 3.0 7.0 0.00 0.00 0.00 80 1017.0
20200403085004 43 286 2.0 8.0 0.00 0.00 0.00 81 1017.0
20200403084004 43 284 1.0 5.0 0.00 0.00 0.00 82 1017.0
20200403083004 42 269 1.0 5.0 0.00 0.00 0.00 84 1016.9
20200403082004 41 299 2.0 6.0 0.00 0.00 0.00 84 1016.8
20200403081004 41 296 3.0 7.0 0.00 0.00 0.00 85 1016.7
20200403080004 41 290 3.0 7.0 0.00 0.00 0.00 85 1016.6
20200403075003 41 285 3.0 7.0 0.00 0.00 0.00 84 1016.5
20200403074003 41 277 1.0 3.0 0.00 0.00 0.00 85 1016.3
20200403073003 41 287 0.0 1.0 0.00 0.00 0.00 86 1016.3
20200403072003 40 279 0.0 1.0 0.00 0.00 0.00 88 1016.3
20200403071004 40 293 0.0 3.0 0.00 0.00 0.00 88 1016.3
20200403070004 40 272 0.0 2.0 0.00 0.00 0.00 88 1016.2
20200403065004 39 275 0.0 3.0 0.00 0.00 0.00 88 1016.1
20200403064003 39 289 0.0 2.0 0.00 0.00 0.00 88 1016.3
20200403063004 39 276 2.0 5.0 0.00 0.00 0.00 88 1016.1
20200403062003 39 289 1.0 4.0 0.00 0.00 0.00 88 1015.9
20200403061004 39 272 0.0 2.0 0.00 0.00 0.00 88 1016.1
20200403060004 39 283 0.0 1.0 0.00 0.00 0.00 88 1015.9
20200403055004 39 287 1.0 3.0 0.00 0.00 0.00 88 1015.6
20200403054004 40 275 1.0 4.0 0.00 0.00 0.00 87 1015.6
20200403053003 39 276 0.0 2.0 0.00 0.00 0.00 87 1015.6
20200403052003 39 289 0.0 2.0 0.00 0.00 0.00 87 1015.5
20200403051004 39 275 0.0 1.0 0.00 0.00 0.00 87 1015.3
20200403050004 40 268 0.0 2.0 0.00 0.00 0.00 87 1015.2
20200403045004 40 268 0.0 2.0 0.00 0.00 0.00 86 1015.2
20200403044004 40 268 0.0 2.0 0.00 0.00 0.00 86 1015.2
20200403043003 40 283 1.0 3.0 0.00 0.00 0.00 85 1015.2
20200403042003 40 277 1.0 2.0 0.00 0.00 0.00 85 1015.1
20200403041003 40 271 0.0 2.0 0.00 0.00 0.00 85 1015.2
20200403040004 40 281 1.0 3.0 0.00 0.00 0.00 85 1014.9
20200403035004 40 271 1.0 3.0 0.00 0.00 0.00 84 1015.1
20200403034004 40 277 1.0 4.0 0.00 0.00 0.00 84 1015.1
20200403033004 40 280 1.0 4.0 0.00 0.00 0.00 84 1014.9
20200403032004 40 272 0.0 2.0 0.00 0.00 0.00 83 1015.2
20200403031003 40 282 1.0 4.0 0.00 0.00 0.00 83 1015.2
20200403030003 41 286 2.0 6.0 0.00 0.00 0.00 83 1015.1
20200403025003 40 290 1.0 6.0 0.00 0.00 0.00 83 1015.1
20200403024003 41 278 1.0 5.0 0.00 0.00 0.00 84 1015.2
20200403023004 41 277 2.0 6.0 0.00 0.00 0.00 84 1015.2
20200403022005 41 286 1.0 5.0 0.00 0.00 0.00 84 1015.1
20200403021004 41 294 2.0 6.0 0.00 0.00 0.00 85 1015.2
20200403020003 41 285 1.0 4.0 0.00 0.00 0.00 87 1015.2
20200403015003 41 268 1.0 3.0 0.00 0.00 0.00 88 1015.0
20200403014003 41 283 0.0 3.0 0.00 0.00 0.00 90 1015.1
20200403013003 41 276 1.0 4.0 0.00 0.00 0.00 90 1014.9
20200403012004 41 283 0.0 2.0 0.00 0.00 0.00 91 1014.9
20200403011004 41 287 0.0 2.0 0.00 0.00 0.00 91 1015.0
20200403010005 41 141 0.0 1.0 0.00 0.00 0.00 91 1015.1
20200403005003 41 141 0.0 1.0 0.00 0.00 0.00 91 1015.0
20200403004003 41 125 0.0 2.0 0.00 0.00 0.00 90 1015.0
20200403003004 42 293 1.0 5.0 0.00 0.00 0.00 90 1015.1
20200403002003 41 290 2.0 5.0 0.00 0.00 0.00 93 1015.1
20200403001004 41 277 2.0 4.0 0.00 0.00 0.00 93 1015.1
20200403000004 41 281 1.0 3.0 0.00 0.00 0.00 93 1015.0
20200402235003 41 281 1.0 6.0 0.00 0.00 0.00 92 1015.1
20200402234003 41 293 1.0 4.0 0.00 0.00 0.00 92 1015.2